User: anonymous   Login
Location: Nelson
(41.2830°S, 173.2830°E)
Time: 21:59:13
(UTC+13:00)
Language:

NOAA 11 - Orbit

View from above orbital plane
View from above orbital plane
View from above satellite
View from above satellite

Ground track
Ground track

The orbit data is extracted from the following two-line orbital elements,

1 19531U 88089A   19078.59360905 -.00000017 +00000-0 +12401-4 0  9995
2 19531 098.4603 117.5814 0011125 003.1852 356.9392 14.15238134573089
Epoch (UTC): 19 March 2019 14:14:47
Eccentricity: 0.0011125
inclination: 98.4603°
perigee height: 833 km
apogee height: 849 km
right ascension of ascending node: 117.5814°
argument of perigee: 3.1852°
revolutions per day: 14.15238134
mean anomaly at epoch: 356.9392°
orbit number at epoch: 57308

The dashed part of the orbit path shows where the satellite is in the earth's shadow,  

DLR